Year,Month,Day,Hour,Minute,Value (Times are PST for temperature in C)
2014,07,08,00,00,18.70
2014,07,08,00,01,18.70
2014,07,08,00,02,18.70
2014,07,08,00,03,18.70
2014,07,08,00,04,18.70
2014,07,08,00,05,18.70
2014,07,08,00,06,18.70
2014,07,08,00,07,18.70
2014,07,08,00,08,18.70
2014,07,08,00,09,18.70
2014,07,08,00,10,18.70
2014,07,08,00,11,18.70
2014,07,08,00,12,18.70
2014,07,08,00,13,18.70
2014,07,08,00,14,18.70
2014,07,08,00,15,18.70
2014,07,08,00,16,18.70
2014,07,08,00,17,18.70
2014,07,08,00,18,18.70
2014,07,08,00,19,18.70
2014,07,08,00,20,18.70
2014,07,08,00,21,18.70
2014,07,08,00,22,18.60
2014,07,08,00,23,18.60
2014,07,08,00,24,18.60
2014,07,08,00,25,18.60
2014,07,08,00,26,18.60
2014,07,08,00,27,18.60
2014,07,08,00,28,18.50
2014,07,08,00,29,18.50
2014,07,08,00,30,18.50
2014,07,08,00,31,18.40
2014,07,08,00,32,18.40
2014,07,08,00,33,18.40
2014,07,08,00,34,18.40
2014,07,08,00,35,18.40
2014,07,08,00,36,18.30
2014,07,08,00,37,18.30
2014,07,08,00,38,18.30
2014,07,08,00,39,18.20
2014,07,08,00,40,18.20
2014,07,08,00,41,18.20
2014,07,08,00,42,18.20
2014,07,08,00,43,18.20
2014,07,08,00,44,18.20
2014,07,08,00,45,18.20
2014,07,08,00,46,18.20
2014,07,08,00,47,18.20
2014,07,08,00,48,18.20
2014,07,08,00,49,18.20
2014,07,08,00,50,18.20
2014,07,08,00,51,18.10
2014,07,08,00,52,18.10
2014,07,08,00,53,18.10
2014,07,08,00,54,18.10
2014,07,08,00,55,18.10
2014,07,08,00,56,18.00
2014,07,08,00,57,18.00
2014,07,08,00,58,17.90
2014,07,08,00,59,17.90
2014,07,08,01,00,17.90
2014,07,08,01,01,17.90
2014,07,08,01,02,17.90
2014,07,08,01,03,17.90
2014,07,08,01,04,17.90
2014,07,08,01,05,17.80
2014,07,08,01,06,17.80
2014,07,08,01,07,17.80
2014,07,08,01,08,17.80
2014,07,08,01,09,17.80
2014,07,08,01,10,17.80
2014,07,08,01,11,17.80
2014,07,08,01,12,17.80
2014,07,08,01,13,17.80
2014,07,08,01,14,17.80
2014,07,08,01,15,17.70
2014,07,08,01,16,17.70
2014,07,08,01,17,17.70
2014,07,08,01,18,17.70
2014,07,08,01,19,17.70
2014,07,08,01,20,17.60
2014,07,08,01,21,17.60
2014,07,08,01,22,17.60
2014,07,08,01,23,17.50
2014,07,08,01,24,17.50
2014,07,08,01,25,17.50
2014,07,08,01,26,17.40
2014,07,08,01,27,17.40
2014,07,08,01,28,17.40
2014,07,08,01,29,17.30
2014,07,08,01,30,17.30
2014,07,08,01,31,17.20
2014,07,08,01,32,17.20
2014,07,08,01,33,17.20
2014,07,08,01,34,17.10
2014,07,08,01,35,17.00
2014,07,08,01,36,17.00
2014,07,08,01,37,16.90
2014,07,08,01,38,16.90
2014,07,08,01,39,16.80
2014,07,08,01,40,16.80
2014,07,08,01,41,16.70
2014,07,08,01,42,16.70
2014,07,08,01,43,16.70
2014,07,08,01,44,16.60
2014,07,08,01,45,16.60
2014,07,08,01,46,16.60
2014,07,08,01,47,16.60
2014,07,08,01,48,16.60
2014,07,08,01,49,16.50
2014,07,08,01,50,16.50
2014,07,08,01,51,16.50
2014,07,08,01,52,16.50
2014,07,08,01,53,16.50
2014,07,08,01,54,16.40
2014,07,08,01,55,16.40
2014,07,08,01,56,16.40
2014,07,08,01,57,16.40
2014,07,08,01,58,16.40
2014,07,08,01,59,16.30
2014,07,08,02,00,16.30
2014,07,08,02,01,16.30
2014,07,08,02,02,16.30
2014,07,08,02,03,16.20
2014,07,08,02,04,16.20
2014,07,08,02,05,16.20
2014,07,08,02,06,16.20
2014,07,08,02,07,16.20
2014,07,08,02,08,16.20
2014,07,08,02,09,16.10
2014,07,08,02,10,16.10
2014,07,08,02,11,16.10
2014,07,08,02,12,16.10
2014,07,08,02,13,16.10
2014,07,08,02,14,16.10
2014,07,08,02,15,16.00
2014,07,08,02,16,16.00
2014,07,08,02,17,16.00
2014,07,08,02,18,16.00
2014,07,08,02,19,16.00
2014,07,08,02,20,16.00
2014,07,08,02,21,16.00
2014,07,08,02,22,16.00
2014,07,08,02,23,16.00
2014,07,08,02,24,16.00
2014,07,08,02,25,16.00
2014,07,08,02,26,16.00
2014,07,08,02,27,16.10
2014,07,08,02,28,16.10
2014,07,08,02,29,16.10
2014,07,08,02,30,16.10
2014,07,08,02,31,16.10
2014,07,08,02,32,16.10
2014,07,08,02,33,16.10
2014,07,08,02,34,16.10
2014,07,08,02,35,16.00
2014,07,08,02,36,16.00
2014,07,08,02,37,16.00
2014,07,08,02,38,15.90
2014,07,08,02,39,15.90
2014,07,08,02,40,15.90
2014,07,08,02,41,15.90
2014,07,08,02,42,15.80
2014,07,08,02,43,15.80
2014,07,08,02,44,15.80
2014,07,08,02,45,15.80
2014,07,08,02,46,15.80
2014,07,08,02,47,15.80
2014,07,08,02,48,15.80
2014,07,08,02,49,15.80
2014,07,08,02,50,15.70
2014,07,08,02,51,15.70
2014,07,08,02,52,15.70
2014,07,08,02,53,15.70
2014,07,08,02,54,15.70
2014,07,08,02,55,15.70
2014,07,08,02,56,15.70
2014,07,08,02,57,15.60
2014,07,08,02,58,15.60
2014,07,08,02,59,15.60
2014,07,08,03,00,15.60
2014,07,08,03,01,15.60
2014,07,08,03,02,15.60
2014,07,08,03,03,15.50
2014,07,08,03,04,15.50
2014,07,08,03,05,15.50
2014,07,08,03,06,15.50
2014,07,08,03,07,15.40
2014,07,08,03,08,15.40
2014,07,08,03,09,15.40
2014,07,08,03,10,15.40
2014,07,08,03,11,15.30
2014,07,08,03,12,15.30
2014,07,08,03,13,15.30
2014,07,08,03,14,15.20
2014,07,08,03,15,15.20
2014,07,08,03,16,15.20
2014,07,08,03,17,15.20
2014,07,08,03,18,15.20
2014,07,08,03,19,15.20
2014,07,08,03,20,15.10
2014,07,08,03,21,15.10
2014,07,08,03,22,15.10
2014,07,08,03,23,15.10
2014,07,08,03,24,15.10
2014,07,08,03,25,15.00
2014,07,08,03,26,15.00
2014,07,08,03,27,15.00
2014,07,08,03,28,15.00
2014,07,08,03,29,15.00
2014,07,08,03,30,15.00
2014,07,08,03,31,15.00
2014,07,08,03,32,15.00
2014,07,08,03,33,15.00
2014,07,08,03,34,15.00
2014,07,08,03,35,15.00
2014,07,08,03,36,15.00
2014,07,08,03,37,15.00
2014,07,08,03,38,15.00
2014,07,08,03,39,15.00
2014,07,08,03,40,15.00
2014,07,08,03,41,15.00
2014,07,08,03,42,15.00
2014,07,08,03,43,15.00
2014,07,08,03,44,15.00
2014,07,08,03,45,15.00
2014,07,08,03,46,15.00
2014,07,08,03,47,14.90
2014,07,08,03,48,14.90
2014,07,08,03,49,14.80
2014,07,08,03,50,14.80
2014,07,08,03,51,14.80
2014,07,08,03,52,14.80
2014,07,08,03,53,14.80
2014,07,08,03,54,14.70
2014,07,08,03,55,14.70
2014,07,08,03,56,14.70
2014,07,08,03,57,14.70
2014,07,08,03,58,14.70
2014,07,08,03,59,14.70
2014,07,08,04,00,14.70
2014,07,08,04,01,14.70
2014,07,08,04,02,14.60
2014,07,08,04,03,14.60
2014,07,08,04,04,14.60
2014,07,08,04,05,14.60
2014,07,08,04,06,14.60
2014,07,08,04,07,14.60
2014,07,08,04,08,14.60
2014,07,08,04,09,14.50
2014,07,08,04,10,14.50
2014,07,08,04,11,14.40
2014,07,08,04,12,14.40
2014,07,08,04,13,14.40
2014,07,08,04,14,14.40
2014,07,08,04,15,14.40
2014,07,08,04,16,14.50
2014,07,08,04,17,14.50
2014,07,08,04,18,14.50
2014,07,08,04,19,14.40
2014,07,08,04,20,14.40
2014,07,08,04,21,14.40
2014,07,08,04,22,14.40
2014,07,08,04,23,14.40
2014,07,08,04,24,14.40
2014,07,08,04,25,14.40
2014,07,08,04,26,14.40
2014,07,08,04,27,14.40
2014,07,08,04,28,14.40
2014,07,08,04,29,14.40
2014,07,08,04,30,14.40
2014,07,08,04,31,14.40
2014,07,08,04,32,14.40
2014,07,08,04,33,14.40
2014,07,08,04,34,14.40
2014,07,08,04,35,14.30
2014,07,08,04,36,14.30
2014,07,08,04,37,14.30
2014,07,08,04,38,14.30
2014,07,08,04,39,14.30
2014,07,08,04,40,14.30
2014,07,08,04,41,14.30
2014,07,08,04,42,14.30
2014,07,08,04,43,14.30
2014,07,08,04,44,14.40
2014,07,08,04,45,14.40
2014,07,08,04,46,14.40
2014,07,08,04,47,14.40
2014,07,08,04,48,14.40
2014,07,08,04,49,14.40
2014,07,08,04,50,14.50
2014,07,08,04,51,14.40
2014,07,08,04,52,14.40
2014,07,08,04,53,14.40
2014,07,08,04,54,14.40
2014,07,08,04,55,14.40
2014,07,08,04,56,14.40
2014,07,08,04,57,14.40
2014,07,08,04,58,14.30
2014,07,08,04,59,14.30
2014,07,08,05,00,14.30
2014,07,08,05,01,14.30
2014,07,08,05,02,14.30
2014,07,08,05,03,14.30
2014,07,08,05,04,14.30
2014,07,08,05,05,14.30
2014,07,08,05,06,14.30
2014,07,08,05,07,14.20
2014,07,08,05,08,14.20
2014,07,08,05,09,14.20
2014,07,08,05,10,14.20
2014,07,08,05,11,14.20
2014,07,08,05,12,14.20
2014,07,08,05,13,14.20
2014,07,08,05,14,14.20
2014,07,08,05,15,14.20
2014,07,08,05,16,14.20
2014,07,08,05,17,14.20
2014,07,08,05,18,14.20
2014,07,08,05,19,14.10
2014,07,08,05,20,14.10
2014,07,08,05,21,14.10
2014,07,08,05,22,14.10
2014,07,08,05,23,14.10
2014,07,08,05,24,14.10
2014,07,08,05,25,14.10
2014,07,08,05,26,14.10
2014,07,08,05,27,14.10
2014,07,08,05,28,14.10
2014,07,08,05,29,14.10
2014,07,08,05,30,14.00
2014,07,08,05,31,14.00
2014,07,08,05,32,14.00
2014,07,08,05,33,14.00
2014,07,08,05,34,13.90
2014,07,08,05,35,13.90
2014,07,08,05,36,13.90
2014,07,08,05,37,13.90
2014,07,08,05,38,13.90
2014,07,08,05,39,13.90
2014,07,08,05,40,13.90
2014,07,08,05,41,13.90
2014,07,08,05,42,13.90
2014,07,08,05,43,13.80
2014,07,08,05,44,13.80
2014,07,08,05,45,13.80
2014,07,08,05,46,13.80
2014,07,08,05,47,13.80
2014,07,08,05,48,13.80
2014,07,08,05,49,13.80
2014,07,08,05,50,13.70
2014,07,08,05,51,13.70
2014,07,08,05,52,13.70
2014,07,08,05,53,13.70
2014,07,08,05,54,13.70
2014,07,08,05,55,13.70
2014,07,08,05,56,13.70
2014,07,08,05,57,13.70
2014,07,08,05,58,13.70
2014,07,08,05,59,13.60
2014,07,08,06,00,13.60
2014,07,08,06,01,13.60
2014,07,08,06,02,13.60
2014,07,08,06,03,13.60
2014,07,08,06,04,13.60
2014,07,08,06,05,13.60
2014,07,08,06,06,13.60
2014,07,08,06,07,13.60
2014,07,08,06,08,13.60
2014,07,08,06,09,13.60
2014,07,08,06,10,13.60
2014,07,08,06,11,13.60
2014,07,08,06,12,13.60
2014,07,08,06,13,13.60
2014,07,08,06,14,13.60
2014,07,08,06,15,13.60
2014,07,08,06,16,13.60
2014,07,08,06,17,13.60
2014,07,08,06,18,13.60
2014,07,08,06,19,13.60
2014,07,08,06,20,13.50
2014,07,08,06,21,13.50
2014,07,08,06,22,13.50
2014,07,08,06,23,13.50
2014,07,08,06,24,13.50
2014,07,08,06,25,13.50
2014,07,08,06,26,13.50
2014,07,08,06,27,13.50
2014,07,08,06,28,13.50
2014,07,08,06,29,13.40
2014,07,08,06,30,13.40
2014,07,08,06,31,13.40
2014,07,08,06,32,13.40
2014,07,08,06,33,13.40
2014,07,08,06,34,13.40
2014,07,08,06,35,13.40
2014,07,08,06,36,13.40
2014,07,08,06,37,13.40
2014,07,08,06,38,13.40
2014,07,08,06,39,13.40
2014,07,08,06,40,13.40
2014,07,08,06,41,13.40
2014,07,08,06,42,13.40
2014,07,08,06,43,13.40
2014,07,08,06,44,13.40
2014,07,08,06,45,13.40
2014,07,08,06,46,13.40
2014,07,08,06,47,13.40
2014,07,08,06,48,13.40
2014,07,08,06,49,13.40
2014,07,08,06,50,13.40
2014,07,08,06,51,13.40
2014,07,08,06,52,13.40
2014,07,08,06,53,13.40
2014,07,08,06,54,13.40
2014,07,08,06,55,13.40
2014,07,08,06,56,13.50
2014,07,08,06,57,13.40
2014,07,08,06,58,13.50
2014,07,08,06,59,13.40
2014,07,08,07,00,13.40
2014,07,08,07,01,13.50
2014,07,08,07,02,13.50
2014,07,08,07,03,13.50
2014,07,08,07,04,13.60
2014,07,08,07,05,13.60
2014,07,08,07,06,13.60
2014,07,08,07,07,13.60
2014,07,08,07,08,13.70
2014,07,08,07,09,13.70
2014,07,08,07,10,13.70
2014,07,08,07,11,13.70
2014,07,08,07,12,13.70
2014,07,08,07,13,13.70
2014,07,08,07,14,13.70
2014,07,08,07,15,13.80
2014,07,08,07,16,13.80
2014,07,08,07,17,13.80
2014,07,08,07,18,13.90
2014,07,08,07,19,13.90
2014,07,08,07,20,14.00
2014,07,08,07,21,14.00
2014,07,08,07,22,14.10
2014,07,08,07,23,14.10
2014,07,08,07,24,14.10
2014,07,08,07,25,14.20
2014,07,08,07,26,14.20
2014,07,08,07,27,14.30
2014,07,08,07,28,14.30
2014,07,08,07,29,14.40
2014,07,08,07,30,14.40
2014,07,08,07,31,14.40
2014,07,08,07,32,14.50
2014,07,08,07,33,14.50
2014,07,08,07,34,14.60
2014,07,08,07,35,14.60
2014,07,08,07,36,14.70
2014,07,08,07,37,14.80
2014,07,08,07,38,14.90
2014,07,08,07,39,15.00
2014,07,08,07,40,15.00
2014,07,08,07,41,15.00
2014,07,08,07,42,15.00
2014,07,08,07,43,15.00
2014,07,08,07,44,15.00
2014,07,08,07,45,15.00
2014,07,08,07,46,15.20
2014,07,08,07,47,15.20
2014,07,08,07,48,15.20
2014,07,08,07,49,15.30
2014,07,08,07,50,15.30
2014,07,08,07,51,15.40
2014,07,08,07,52,15.40
2014,07,08,07,53,15.50
2014,07,08,07,54,15.50
2014,07,08,07,55,15.60
2014,07,08,07,56,15.60
2014,07,08,07,57,15.70
2014,07,08,07,58,15.70
2014,07,08,07,59,15.70
2014,07,08,08,00,15.80
2014,07,08,08,01,15.80
2014,07,08,08,02,15.90
2014,07,08,08,03,16.00
2014,07,08,08,04,16.00
2014,07,08,08,05,16.10
2014,07,08,08,06,16.20
2014,07,08,08,07,16.30
2014,07,08,08,08,16.40
2014,07,08,08,09,16.60
2014,07,08,08,10,16.70
2014,07,08,08,11,16.80
2014,07,08,08,12,16.90
2014,07,08,08,13,17.10
2014,07,08,08,14,17.20
2014,07,08,08,15,17.30
2014,07,08,08,16,17.40
2014,07,08,08,17,17.40
2014,07,08,08,18,17.50
2014,07,08,08,19,17.60
2014,07,08,08,20,17.70
2014,07,08,08,21,17.80
2014,07,08,08,22,17.90
2014,07,08,08,23,17.90
2014,07,08,08,24,18.00
2014,07,08,08,25,18.20
2014,07,08,08,26,18.30
2014,07,08,08,27,18.40
2014,07,08,08,28,18.50
2014,07,08,08,29,18.60
2014,07,08,08,30,18.70
2014,07,08,08,31,18.70
2014,07,08,08,32,18.90
2014,07,08,08,33,19.00
2014,07,08,08,34,19.10
2014,07,08,08,35,19.20
2014,07,08,08,36,19.20
2014,07,08,08,37,19.30
2014,07,08,08,38,19.30
2014,07,08,08,39,19.30
2014,07,08,08,40,19.30
2014,07,08,08,41,19.30
2014,07,08,08,42,19.30
2014,07,08,08,43,19.30
2014,07,08,08,44,19.40
2014,07,08,08,45,19.40
2014,07,08,08,46,19.50
2014,07,08,08,47,19.60
2014,07,08,08,48,19.60
2014,07,08,08,49,19.70
2014,07,08,08,50,19.70
2014,07,08,08,51,19.80
2014,07,08,08,52,19.80
2014,07,08,08,53,19.80
2014,07,08,08,54,19.80
2014,07,08,08,55,19.80
2014,07,08,08,56,19.90
2014,07,08,08,57,19.90
2014,07,08,08,58,20.00
2014,07,08,08,59,20.00
2014,07,08,09,00,20.10
2014,07,08,09,01,20.20
2014,07,08,09,02,20.20
2014,07,08,09,03,20.30
2014,07,08,09,04,20.40
2014,07,08,09,05,20.50
2014,07,08,09,06,20.50
2014,07,08,09,07,20.60
2014,07,08,09,08,20.60
2014,07,08,09,09,20.60
2014,07,08,09,10,20.60
2014,07,08,09,11,20.50
2014,07,08,09,12,20.50
2014,07,08,09,13,20.40
2014,07,08,09,14,20.40
2014,07,08,09,15,20.50
2014,07,08,09,16,20.50
2014,07,08,09,17,20.50
2014,07,08,09,18,20.50
2014,07,08,09,19,20.50
2014,07,08,09,20,20.60
2014,07,08,09,21,20.60
2014,07,08,09,22,20.60
2014,07,08,09,23,20.60
2014,07,08,09,24,20.60
2014,07,08,09,25,20.70
2014,07,08,09,26,20.70
2014,07,08,09,27,20.70
2014,07,08,09,28,20.70
2014,07,08,09,29,20.70
2014,07,08,09,30,20.80
2014,07,08,09,31,20.80
2014,07,08,09,32,20.90
2014,07,08,09,33,21.00
2014,07,08,09,34,21.10
2014,07,08,09,35,21.20
2014,07,08,09,36,21.30
2014,07,08,09,37,21.30
2014,07,08,09,38,21.40
2014,07,08,09,39,21.50
2014,07,08,09,40,21.50
2014,07,08,09,41,21.60
2014,07,08,09,42,21.70
2014,07,08,09,43,21.80
2014,07,08,09,44,21.90
2014,07,08,09,45,22.00
2014,07,08,09,46,22.10
2014,07,08,09,47,22.10
2014,07,08,09,48,22.20
2014,07,08,09,49,22.20
2014,07,08,09,50,22.30
2014,07,08,09,51,22.40
2014,07,08,09,52,22.50
2014,07,08,09,53,22.60
2014,07,08,09,54,22.70
2014,07,08,09,55,22.70
2014,07,08,09,56,22.80
2014,07,08,09,57,22.90
2014,07,08,09,58,23.00
2014,07,08,09,59,23.00
2014,07,08,10,00,23.10
2014,07,08,10,01,23.10
2014,07,08,10,02,23.20
2014,07,08,10,03,23.20
2014,07,08,10,04,23.30
2014,07,08,10,05,23.30
2014,07,08,10,06,23.40
2014,07,08,10,07,23.40
2014,07,08,10,08,23.50
2014,07,08,10,09,23.50
2014,07,08,10,10,23.50
2014,07,08,10,11,23.50
2014,07,08,10,12,23.50
2014,07,08,10,13,23.60
2014,07,08,10,14,23.60
2014,07,08,10,15,23.70
2014,07,08,10,16,23.70
2014,07,08,10,17,23.80
2014,07,08,10,18,23.80
2014,07,08,10,19,23.80
2014,07,08,10,20,23.80
2014,07,08,10,21,23.90
2014,07,08,10,22,24.00
2014,07,08,10,23,24.10
2014,07,08,10,24,24.20
2014,07,08,10,25,24.30
2014,07,08,10,26,24.30
2014,07,08,10,27,24.40
2014,07,08,10,28,24.50
2014,07,08,10,29,24.60
2014,07,08,10,30,24.70
2014,07,08,10,31,24.80
2014,07,08,10,32,24.80
2014,07,08,10,33,24.90
2014,07,08,10,34,24.90
2014,07,08,10,35,24.90
2014,07,08,10,36,24.90
2014,07,08,10,37,25.00
2014,07,08,10,38,25.00
2014,07,08,10,39,25.10
2014,07,08,10,40,25.10
2014,07,08,10,41,25.20
2014,07,08,10,42,25.30
2014,07,08,10,43,25.40
2014,07,08,10,44,25.50
2014,07,08,10,45,25.60
2014,07,08,10,46,25.60
2014,07,08,10,47,25.60
2014,07,08,10,48,25.50
2014,07,08,10,49,25.40
2014,07,08,10,50,25.30
2014,07,08,10,51,25.30
2014,07,08,10,52,25.30
2014,07,08,10,53,25.30
2014,07,08,10,54,25.30
2014,07,08,10,55,25.20
2014,07,08,10,56,25.20
2014,07,08,10,57,25.20
2014,07,08,10,58,25.20
2014,07,08,10,59,25.20
2014,07,08,11,00,25.20
2014,07,08,11,01,25.20
2014,07,08,11,02,25.10
2014,07,08,11,03,25.10
2014,07,08,11,04,25.10
2014,07,08,11,05,25.20
2014,07,08,11,06,25.20
2014,07,08,11,07,25.30
2014,07,08,11,08,25.40
2014,07,08,11,09,25.50
2014,07,08,11,10,25.60
2014,07,08,11,11,25.50
2014,07,08,11,12,25.40
2014,07,08,11,13,25.40
2014,07,08,11,14,25.30
2014,07,08,11,15,25.30
2014,07,08,11,16,25.40
2014,07,08,11,17,25.50
2014,07,08,11,18,25.60
2014,07,08,11,19,25.70
2014,07,08,11,20,25.80
2014,07,08,11,21,25.80
2014,07,08,11,22,26.00
2014,07,08,11,23,26.20
2014,07,08,11,24,26.30
2014,07,08,11,25,26.50
2014,07,08,11,26,26.60
2014,07,08,11,27,26.70
2014,07,08,11,28,26.80
2014,07,08,11,29,26.90
2014,07,08,11,30,27.00
2014,07,08,11,31,27.10
2014,07,08,11,32,27.20
2014,07,08,11,33,27.20
2014,07,08,11,34,27.30
2014,07,08,11,35,27.30
2014,07,08,11,36,27.40
2014,07,08,11,37,27.40
2014,07,08,11,38,27.50
2014,07,08,11,39,27.50
2014,07,08,11,40,27.50
2014,07,08,11,41,27.50
2014,07,08,11,42,27.50
2014,07,08,11,43,27.50
2014,07,08,11,44,27.50
2014,07,08,11,45,27.30
2014,07,08,11,46,27.20
2014,07,08,11,47,27.00
2014,07,08,11,48,26.90
2014,07,08,11,49,26.80
2014,07,08,11,50,26.70
2014,07,08,11,51,26.70
2014,07,08,11,52,26.60
2014,07,08,11,53,26.60
2014,07,08,11,54,26.50
2014,07,08,11,55,26.50
2014,07,08,11,56,26.50
2014,07,08,11,57,26.50
2014,07,08,11,58,26.50
2014,07,08,11,59,26.60
2014,07,08,12,00,26.70
2014,07,08,12,01,26.80
2014,07,08,12,02,26.90
2014,07,08,12,03,27.00
2014,07,08,12,04,27.10
2014,07,08,12,05,27.00
2014,07,08,12,06,27.00
2014,07,08,12,07,26.90
2014,07,08,12,08,26.90
2014,07,08,12,09,27.00
2014,07,08,12,10,27.00
2014,07,08,12,11,27.10
2014,07,08,12,12,27.20
2014,07,08,12,13,27.20
2014,07,08,12,14,27.30
2014,07,08,12,15,27.50
2014,07,08,12,16,27.60
2014,07,08,12,17,27.60
2014,07,08,12,18,27.70
2014,07,08,12,19,27.70
2014,07,08,12,20,27.70
2014,07,08,12,21,27.70
2014,07,08,12,22,27.70
2014,07,08,12,23,27.80
2014,07,08,12,24,27.80
2014,07,08,12,25,27.90
2014,07,08,12,26,28.00
2014,07,08,12,27,28.10
2014,07,08,12,28,28.30
2014,07,08,12,29,28.30
2014,07,08,12,30,28.40
2014,07,08,12,31,28.40
2014,07,08,12,32,28.50
2014,07,08,12,33,28.50
2014,07,08,12,34,28.60
2014,07,08,12,35,28.60
2014,07,08,12,36,28.50
2014,07,08,12,37,28.40
2014,07,08,12,38,28.40
2014,07,08,12,39,28.40
2014,07,08,12,40,28.40
2014,07,08,12,41,28.40
2014,07,08,12,42,28.50
2014,07,08,12,43,28.60
2014,07,08,12,44,28.60
2014,07,08,12,45,28.50
2014,07,08,12,46,28.50
2014,07,08,12,47,28.60
2014,07,08,12,48,28.60
2014,07,08,12,49,28.60
2014,07,08,12,50,28.70
2014,07,08,12,51,28.80
2014,07,08,12,52,28.80
2014,07,08,12,53,28.90
2014,07,08,12,54,28.90
2014,07,08,12,55,29.00
2014,07,08,12,56,29.10
2014,07,08,12,57,29.10
2014,07,08,12,58,29.20
2014,07,08,12,59,29.20
2014,07,08,13,00,29.30
2014,07,08,13,01,29.30
2014,07,08,13,02,29.30
2014,07,08,13,03,29.30
2014,07,08,13,04,29.30
2014,07,08,13,05,29.30
2014,07,08,13,06,29.30
2014,07,08,13,07,29.20
2014,07,08,13,08,29.20
2014,07,08,13,09,29.20
2014,07,08,13,10,29.20
2014,07,08,13,11,29.30
2014,07,08,13,12,29.30
2014,07,08,13,13,29.40
2014,07,08,13,14,29.50
2014,07,08,13,15,29.60
2014,07,08,13,16,29.70
2014,07,08,13,17,29.70
2014,07,08,13,18,29.70
2014,07,08,13,19,29.70
2014,07,08,13,20,29.70
2014,07,08,13,21,29.60
2014,07,08,13,22,29.60
2014,07,08,13,23,29.70
2014,07,08,13,24,29.80
2014,07,08,13,25,29.90
2014,07,08,13,26,29.90
2014,07,08,13,27,29.90
2014,07,08,13,28,30.00
2014,07,08,13,29,30.00
2014,07,08,13,30,30.10
2014,07,08,13,31,30.10
2014,07,08,13,32,30.10
2014,07,08,13,33,30.10
2014,07,08,13,34,30.20
2014,07,08,13,35,30.20
2014,07,08,13,36,30.30
2014,07,08,13,37,30.30
2014,07,08,13,38,30.20
2014,07,08,13,39,30.10
2014,07,08,13,40,30.00
2014,07,08,13,41,29.80
2014,07,08,13,42,29.70
2014,07,08,13,43,29.60
2014,07,08,13,44,29.50
2014,07,08,13,45,29.50
2014,07,08,13,46,29.60
2014,07,08,13,47,29.60
2014,07,08,13,48,29.70
2014,07,08,13,49,29.70
2014,07,08,13,50,29.60
2014,07,08,13,51,29.60
2014,07,08,13,52,29.60
2014,07,08,13,53,29.60
2014,07,08,13,54,29.70
2014,07,08,13,55,29.70
2014,07,08,13,56,29.80
2014,07,08,13,57,29.80
2014,07,08,13,58,29.80
2014,07,08,13,59,29.90
2014,07,08,14,00,30.00
2014,07,08,14,01,30.00
2014,07,08,14,02,30.10
2014,07,08,14,03,30.10
2014,07,08,14,04,30.10
2014,07,08,14,05,30.10
2014,07,08,14,06,30.10
2014,07,08,14,07,30.10
2014,07,08,14,08,30.00
2014,07,08,14,09,30.00
2014,07,08,14,10,29.90
2014,07,08,14,11,29.70
2014,07,08,14,12,29.70
2014,07,08,14,13,29.70
2014,07,08,14,14,29.80
2014,07,08,14,15,29.80
2014,07,08,14,16,29.80
2014,07,08,14,17,29.80
2014,07,08,14,18,29.90
2014,07,08,14,19,29.90
2014,07,08,14,20,29.90
2014,07,08,14,21,29.90
2014,07,08,14,22,30.00
2014,07,08,14,23,30.10
2014,07,08,14,24,30.20
2014,07,08,14,25,30.20
2014,07,08,14,26,30.30
2014,07,08,14,27,30.30
2014,07,08,14,28,30.20
2014,07,08,14,29,30.10
2014,07,08,14,30,30.10
2014,07,08,14,31,30.00
2014,07,08,14,32,30.00
2014,07,08,14,33,30.00
2014,07,08,14,34,30.00
2014,07,08,14,35,30.10
2014,07,08,14,36,30.10
2014,07,08,14,37,30.10
2014,07,08,14,38,30.20
2014,07,08,14,39,30.30
2014,07,08,14,40,30.30
2014,07,08,14,41,30.40
2014,07,08,14,42,30.40
2014,07,08,14,43,30.40
2014,07,08,14,44,30.40
2014,07,08,14,45,30.40
2014,07,08,14,46,30.20
2014,07,08,14,47,30.10
2014,07,08,14,48,30.00
2014,07,08,14,49,29.80
2014,07,08,14,50,29.70
2014,07,08,14,51,29.70
2014,07,08,14,52,29.60
2014,07,08,14,53,29.60
2014,07,08,14,54,29.60
2014,07,08,14,55,29.60
2014,07,08,14,56,29.70
2014,07,08,14,57,29.90
2014,07,08,14,58,30.00
2014,07,08,14,59,30.10
2014,07,08,15,00,30.00
2014,07,08,15,01,29.90
2014,07,08,15,02,29.90
2014,07,08,15,03,29.80
2014,07,08,15,04,29.70
2014,07,08,15,05,29.70
2014,07,08,15,06,29.70
2014,07,08,15,07,29.70
2014,07,08,15,08,29.70
2014,07,08,15,09,29.70
2014,07,08,15,10,29.80
2014,07,08,15,11,29.80
2014,07,08,15,12,29.90
2014,07,08,15,13,30.00
2014,07,08,15,14,30.00
2014,07,08,15,15,30.20
2014,07,08,15,16,30.20
2014,07,08,15,17,30.30
2014,07,08,15,18,30.50
2014,07,08,15,19,30.60
2014,07,08,15,20,30.60
2014,07,08,15,21,30.70
2014,07,08,15,22,30.80
2014,07,08,15,23,30.80
2014,07,08,15,24,30.90
2014,07,08,15,25,30.80
2014,07,08,15,26,30.80
2014,07,08,15,27,30.70
2014,07,08,15,28,30.70
2014,07,08,15,29,30.60
2014,07,08,15,30,30.50
2014,07,08,15,31,30.20
2014,07,08,15,32,29.90
2014,07,08,15,33,29.60
2014,07,08,15,34,29.50
2014,07,08,15,35,29.40
2014,07,08,15,36,29.40
2014,07,08,15,37,29.30
2014,07,08,15,38,29.40
2014,07,08,15,39,29.40
2014,07,08,15,40,29.40
2014,07,08,15,41,29.40
2014,07,08,15,42,29.40
2014,07,08,15,43,29.30
2014,07,08,15,44,29.30
2014,07,08,15,45,29.30
2014,07,08,15,46,29.20
2014,07,08,15,47,29.20
2014,07,08,15,48,29.10
2014,07,08,15,49,29.10
2014,07,08,15,50,29.10
2014,07,08,15,51,29.20
2014,07,08,15,52,29.20
2014,07,08,15,53,29.10
2014,07,08,15,54,29.10
2014,07,08,15,55,29.20
2014,07,08,15,56,29.20
2014,07,08,15,57,29.10
2014,07,08,15,58,29.10
2014,07,08,15,59,29.10
2014,07,08,16,00,29.10
2014,07,08,16,01,29.20
2014,07,08,16,02,29.20
2014,07,08,16,03,29.30
2014,07,08,16,04,29.30
2014,07,08,16,05,29.40
2014,07,08,16,06,29.40
2014,07,08,16,07,29.40
2014,07,08,16,08,29.40
2014,07,08,16,09,29.30
2014,07,08,16,10,29.30
2014,07,08,16,11,29.30
2014,07,08,16,12,29.30
2014,07,08,16,13,29.30
2014,07,08,16,14,29.30
2014,07,08,16,15,29.30
2014,07,08,16,16,29.20
2014,07,08,16,17,29.30
2014,07,08,16,18,29.30
2014,07,08,16,19,29.30
2014,07,08,16,20,29.30
2014,07,08,16,21,29.30
2014,07,08,16,22,29.30
2014,07,08,16,23,29.30
2014,07,08,16,24,29.30
2014,07,08,16,25,29.30
2014,07,08,16,26,29.30
2014,07,08,16,27,29.20
2014,07,08,16,28,29.10
2014,07,08,16,29,29.10
2014,07,08,16,30,29.10
2014,07,08,16,31,29.10
2014,07,08,16,32,29.10
2014,07,08,16,33,29.10
2014,07,08,16,34,29.10
2014,07,08,16,35,29.10
2014,07,08,16,36,29.00
2014,07,08,16,37,29.00
2014,07,08,16,38,28.90
2014,07,08,16,39,28.90
2014,07,08,16,40,28.90
2014,07,08,16,41,28.90
2014,07,08,16,42,28.90
2014,07,08,16,43,28.90
2014,07,08,16,44,28.90
2014,07,08,16,45,28.80
2014,07,08,16,46,28.80
2014,07,08,16,47,28.70
2014,07,08,16,48,28.60
2014,07,08,16,49,28.60
2014,07,08,16,50,28.60
2014,07,08,16,51,28.60
2014,07,08,16,52,28.60
2014,07,08,16,53,28.70
2014,07,08,16,54,28.70
2014,07,08,16,55,28.70
2014,07,08,16,56,28.70
2014,07,08,16,57,28.70
2014,07,08,16,58,28.70
2014,07,08,16,59,28.70
2014,07,08,17,00,28.70
2014,07,08,17,01,28.70
2014,07,08,17,02,28.70
2014,07,08,17,03,28.70
2014,07,08,17,04,28.70
2014,07,08,17,05,28.70
2014,07,08,17,06,28.80
2014,07,08,17,07,28.80
2014,07,08,17,08,28.80
2014,07,08,17,09,28.90
2014,07,08,17,10,28.90
2014,07,08,17,11,28.90
2014,07,08,17,12,29.00
2014,07,08,17,13,29.00
2014,07,08,17,14,29.10
2014,07,08,17,15,29.10
2014,07,08,17,16,29.10
2014,07,08,17,17,29.10
2014,07,08,17,18,29.20
2014,07,08,17,19,29.20